Flag for Austria Weather past 2 weeks in Hallein, Salzburg, Austria

Now
66 °F

Scattered clouds.


Feels Like: 66 °F
Forecast: 48 / 63 °F
Wind: 5 mph from North

Location: Salzburg-Flughafen

Current Time: Aug 22, 2014 at 12:38:53 PM

Latest Report: Aug 22, 2014 at 11:50 AM


Visibility: N/A

Pressure: 30.01 "Hg

Humidity: 56%

Dew point: 50 °F

Location of HalleinLocation

Historic Weather in Hallein — Graph

°F

Hallein temperature yesterday

Maximum temperature yesterday: 66 °F (at 1:50 PM)
Minimum temperature yesterday: 54 °F (at 12:20 AM)
Average temperature yesterday: 58 °F

Past Weeks' High & Low Weather Summary

 TemperatureHumidityPressure
High86 °F (Aug 10, 3:20 PM)100% (Aug 11, 6:50 PM)30.18 "Hg (Aug 11, 6:50 PM)
Low50 °F (Aug 17, 6:20 AM)40% (Aug 10, 3:20 PM)29.65 "Hg (Aug 13, 4:50 PM)
Average62 °F79%29.99 "Hg
* Reported Aug 7 11:20 AM — Aug 22 11:20 AM, Hallein, Weather by CustomWeather, © 2014

Note: Actual official high and low records may vary slightly from our data, if they occured in-between our weather recording intervals... More about our weather records

Advertising

Hallein weather history for previous 24 hours

 ConditionsComfort  
Time TempWeatherWind HumidityBarometerVisibility
11:20 AM
Aug 22
64 °FScattered clouds.2 mph56%30.01 "HgN/A
10:50 AM63 °FScattered clouds.5 mph64%30.01 "HgN/A
10:20 AM63 °FScattered clouds.2 mph68%30.01 "HgN/A
9:50 AM61 °FScattered clouds.3 mph72%30.01 "HgN/A
9:20 AM59 °FScattered clouds.6 mph82%30.01 "HgN/A
8:50 AM59 °FScattered clouds.6 mph77%30.01 "HgN/A
8:20 AM59 °FScattered clouds.8 mph82%30.01 "HgN/A
7:50 AM55 °FPassing clouds.6 mph88%30.01 "HgN/A
7:20 AM55 °FPassing clouds.6 mph88%30.01 "HgN/A
6:50 AM52 °FPassing clouds.5 mph94%30.01 "HgN/A
6:20 AM54 °FPassing clouds.5 mph94%30.01 "HgN/A
5:50 AM54 °FPassing clouds.6 mph94%30.01 "HgN/A
5:20 AM54 °FPassing clouds.6 mph94%30.01 "HgN/A
4:50 AM54 °FPassing clouds.8 mph94%30.01 "HgN/A
4:20 AM55 °FPassing clouds.12 mph88%30.04 "HgN/A
3:50 AM55 °FPartly cloudy.9 mph88%30.04 "HgN/A
3:20 AM55 °FPartly cloudy.7 mph88%30.04 "HgN/A
2:50 AM55 °FPartly cloudy.6 mph88%30.04 "HgN/A
2:20 AM55 °FPassing clouds.8 mph88%30.04 "HgN/A
1:50 AM57 °FPassing clouds.6 mph82%30.04 "HgN/A
1:20 AM57 °FPassing clouds.7 mph82%30.04 "HgN/A
12:50 AM57 °FPassing clouds.5 mph82%30.04 "HgN/A
12:20 AM55 °FPassing clouds.5 mph88%30.04 "HgN/A
11:50 PM
Aug 21
57 °FPassing clouds.7 mph82%30.04 "HgN/A
11:20 PM57 °FPassing clouds.5 mph82%30.04 "HgN/A
10:50 PM55 °FPassing clouds.5 mph88%30.07 "HgN/A
10:20 PM57 °FPassing clouds.5 mph82%30.04 "HgN/A
9:50 PM57 °FPassing clouds.3 mph88%30.07 "HgN/A
9:20 PM57 °FPassing clouds.5 mph82%30.04 "HgN/A
8:50 PM59 °FPartly sunny.5 mph77%30.04 "HgN/A
8:20 PM59 °FPartly sunny.5 mph77%30.04 "HgN/A
7:50 PM61 °FPartly sunny.3 mph83%30.04 "HgN/A
7:20 PM61 °FPartly sunny.1 mph83%30.04 "HgN/A
6:50 PM63 °FBroken clouds.3 mph68%30.04 "HgN/A
6:20 PM63 °FBroken clouds.2 mph64%30.04 "HgN/A
5:50 PM64 °FBroken clouds.3 mph60%30.04 "HgN/A
5:20 PM64 °FBroken clouds.2 mph56%30.04 "HgN/A
4:50 PM64 °FBroken clouds.2 mph56%30.04 "HgN/A
4:20 PM64 °FBroken clouds.3 mph49%30.04 "HgN/A
3:50 PM64 °FPartly sunny.5 mph56%30.04 "HgN/A
3:20 PM64 °FBroken clouds.2 mph56%30.07 "HgN/A
2:50 PM64 °FPartly sunny.2 mph56%30.07 "HgN/A
2:20 PM64 °FPartly sunny.2 mph56%30.07 "HgN/A
1:50 PM66 °FScattered clouds.1 mph56%30.07 "HgN/A
1:20 PM64 °FScattered clouds.3 mph56%30.09 "HgN/A
12:50 PM63 °FScattered clouds.3 mph59%30.09 "HgN/A
12:20 PM63 °FPartly sunny.3 mph64%30.09 "HgN/A
Weather by CustomWeather, © 2014

See weather overviewHow to use our weather pages